QPF
0.06 0.07 0.07 0.05 0.04 0.03 0.02 0.03 0.04 0.04 0.03 0.03 0.02 0.01 0.01 0.01 0.01 0.01 0.01 0.01 0.00 0.01 0.00 0.00 0.00 0.00 0.00 0.00 0.01 0.01 0.01 0.01 0.01 0.01 0.01 0.01 0.01 0.01
0.07 0.07 0.07 0.04 0.05 0.04 0.03 0.03 0.04 0.05 0.04 0.03 0.03 0.01 0.02 0.02 0.01 0.01 0.01 0.02 0.02 0.01 0.01 0.00 0.00 0.00 0.00 0.00 0.00 0.00 0.01 0.01 0.01 0.01 0.01 0.01 0.00 0.00
0.07 0.07 0.07 0.06 0.06 0.05 0.06 0.07 0.07 0.07 0.06 0.04 0.03 0.03 0.03 0.04 0.03 0.03 0.02 0.02 0.02 0.02 0.01 0.00 0.00 0.00 0.00 0.00 0.00 0.01 0.01 0.01 0.01 0.01 0.01 0.01 0.01 0.00
0.07 0.07 0.07 0.06 0.05 0.05 0.06 0.06 0.05 0.05 0.05 0.05 0.05 0.04 0.04 0.04 0.04 0.03 0.02 0.01 0.01 0.02 0.01 0.01 0.01 0.00 0.00 0.00 0.00 0.00 0.00 0.00 0.01 0.01 0.01 0.01 0.00 0.00
0.09 0.08 0.07 0.08 0.08 0.07 0.07 0.06 0.05 0.04 0.05 0.05 0.05 0.05 0.04 0.04 0.03 0.03 0.03 0.03 0.02 0.02 0.01 0.01 0.01 0.01 0.01 0.00 0.00 0.00 0.00 0.00 0.00 0.01 0.01 0.01 0.01 0.01
0.11 0.10 0.08 0.08 0.08 0.08 0.07 0.06 0.06 0.07 0.08 0.08 0.08 0.08 0.08 0.07 0.05 0.04 0.04 0.05 0.04 0.02 0.02 0.01 0.01 0.01 0.01 0.01 0.00 0.00 0.00 0.00 0.00 0.01 0.01 0.01 0.01 0.01
0.14 0.11 0.09 0.08 0.08 0.07 0.06 0.06 0.06 0.06 0.06 0.07 0.07 0.07 0.06 0.05 0.04 0.04 0.04 0.05 0.04 0.03 0.04 0.02 0.02 0.01 0.01 0.01 0.01 0.01 0.01 0.01 0.01 0.01 0.01 0.01 0.01 0.01
0.20 0.16 0.13 0.10 0.09 0.08 0.08 0.07 0.07 0.06 0.07 0.07 0.07 0.07 0.07 0.06 0.06 0.05 0.05 0.05 0.05 0.04 0.05 0.04 0.03 0.03 0.03 0.03 0.02 0.02 0.01 0.01 0.01 0.01 0.01 0.01 0.01 0.01
0.17 0.18 0.15 0.13 0.11 0.09 0.10 0.10 0.09 0.10 0.10 0.10 0.10 0.09 0.09 0.09 0.08 0.08 0.08 0.09 0.09 0.07 0.07 0.06 0.04 0.04 0.04 0.03 0.03 0.03 0.02 0.01 0.01 0.01 0.01 0.01 0.00 0.00
0.17 0.16 0.15 0.14 0.14 0.13 0.12 0.10 0.09 0.09 0.09 0.08 0.08 0.09 0.10 0.10 0.10 0.09 0.08 0.08 0.07 0.06 0.06 0.06 0.06 0.07 0.07 0.06 0.05 0.03 0.02 0.01 0.01 0.01 0.01 0.01 0.00 0.00
0.23 0.21 0.18 0.17 0.18 0.17 0.15 0.15 0.16 0.15 0.14 0.13 0.13 0.12 0.11 0.10 0.09 0.07 0.07 0.07 0.06 0.05 0.05 0.05 0.05 0.05 0.04 0.03 0.02 0.01 0.01 0.00 0.00 0.00 0.00 0.00 0.00 0.00
0.20 0.18 0.16 0.14 0.12 0.10 0.09 0.11 0.12 0.13 0.14 0.13 0.12 0.10 0.09 0.08 0.07 0.05 0.05 0.06 0.05 0.05 0.04 0.04 0.04 0.04 0.03 0.02 0.02 0.01 0.01 0.01 0.00 0.00 0.00 0.00 0.00 0.00
0.15 0.13 0.10 0.09 0.07 0.05 0.05 0.05 0.08 0.09 0.09 0.09 0.07 0.07 0.07 0.06 0.06 0.05 0.05 0.05 0.05 0.05 0.04 0.04 0.04 0.04 0.04 0.04 0.03 0.02 0.02 0.02 0.01 0.01 0.01 0.01 0.01 0.00
0.08 0.07 0.07 0.07 0.06 0.05 0.05 0.06 0.07 0.06 0.05 0.05 0.05 0.05 0.05 0.06 0.06 0.06 0.06 0.05 0.05 0.04 0.03 0.04 0.04 0.05 0.05 0.05 0.04 0.04 0.04 0.03 0.03 0.02 0.02 0.01 0.01 0.01
0.04 0.05 0.05 0.06 0.06 0.05 0.05 0.05 0.05 0.04 0.04 0.05 0.06 0.07 0.07 0.07 0.07 0.06 0.06 0.06 0.05 0.04 0.04 0.04 0.04 0.04 0.05 0.04 0.04 0.03 0.04 0.03 0.03 0.03 0.03 0.02 0.02 0.02
0.07 0.07 0.07 0.07 0.06 0.05 0.05 0.04 0.04 0.05 0.06 0.08 0.09 0.09 0.08 0.07 0.06 0.06 0.05 0.05 0.05 0.04 0.03 0.03 0.03 0.03 0.04 0.04 0.04 0.04 0.03 0.03 0.03 0.03 0.03 0.03 0.03 0.02
0.07 0.07 0.06 0.05 0.05 0.04 0.03 0.03 0.04 0.05 0.06 0.06 0.06 0.05 0.05 0.05 0.06 0.06 0.05 0.04 0.04 0.04 0.04 0.03 0.02 0.02 0.03 0.04 0.04 0.04 0.04 0.04 0.04 0.04 0.04 0.03 0.03 0.04
0.07 0.06 0.06 0.06 0.05 0.04 0.04 0.04 0.04 0.04 0.04 0.04 0.04 0.04 0.04 0.04 0.03 0.03 0.03 0.03 0.03 0.03 0.03 0.03 0.03 0.03 0.03 0.03 0.03 0.04 0.05 0.05 0.06 0.06 0.05 0.04 0.03 0.03
0.04 0.05 0.05 0.05 0.03 0.03 0.03 0.03 0.03 0.03 0.03 0.02 0.02 0.02 0.01 0.01 0.02 0.02 0.02 0.02 0.02 0.02 0.02 0.03 0.03 0.04 0.04 0.04 0.03 0.02 0.03 0.04 0.04 0.04 0.04 0.05 0.04 0.04
0.04 0.04 0.03 0.03 0.02 0.02 0.01 0.01 0.01 0.01 0.01 0.01 0.01 0.01 0.01 0.01 0.01 0.01 0.01 0.02 0.02 0.02 0.02 0.03 0.03 0.04 0.04 0.04 0.04 0.03 0.03 0.03 0.05 0.05 0.04 0.04 0.05 0.05
0.02 0.02 0.02 0.02 0.01 0.01 0.01 0.00 0.00 0.00 0.00 0.00 0.00 0.01 0.01 0.01 0.00 0.00 0.01 0.01 0.02 0.03 0.02 0.02 0.03 0.03 0.02 0.03 0.03 0.03 0.03 0.04 0.04 0.03 0.04 0.05 0.06 0.07
0.01 0.01 0.00 0.00 0.00 0.00 0.00 0.00 0.00 0.00 0.00 0.00 0.00 0.01 0.01 0.01 0.01 0.01 0.01 0.01 0.01 0.02 0.01 0.01 0.01 0.01 0.02 0.03 0.03 0.03 0.03 0.04 0.04 0.02 0.02 0.02 0.04 0.05
0.00 0.00 0.00 0.00 0.00 0.00 0.00 0.00 0.00 0.00 0.00 0.00 0.01 0.01 0.01 0.01 0.01 0.01 0.01 0.01 0.01 0.01 0.01 0.01 0.01 0.01 0.02 0.02 0.03 0.03 0.05 0.05 0.03 0.03 0.04 0.03 0.02 0.02
MSLP
1016.36 1016.56 1016.75 1016.92 1017.06 1017.16 1017.22 1017.24 1017.20 1017.10 1016.97 1016.80 1016.61 1016.43 1016.27 1016.15 1016.09 1016.09 1016.16 1016.30 1016.50 1016.74 1017.02 1017.30 1017.58 1017.83 1018.05 1018.23 1018.38 1018.49 1018.57 1018.63 1018.67 1018.70 1018.72 1018.74 1018.73 1018.71
1015.80 1016.04 1016.27 1016.47 1016.66 1016.81 1016.92 1016.99 1017.00 1016.96 1016.86 1016.72 1016.54 1016.35 1016.15 1015.97 1015.82 1015.72 1015.69 1015.72 1015.82 1015.98 1016.18 1016.41 1016.66 1016.91 1017.14 1017.35 1017.53 1017.67 1017.79 1017.87 1017.93 1017.97 1017.99 1017.99 1017.96 1017.92
1015.20 1015.51 1015.80 1016.07 1016.32 1016.54 1016.72 1016.85 1016.93 1016.95 1016.91 1016.80 1016.65 1016.45 1016.22 1015.98 1015.76 1015.56 1015.40 1015.31 1015.28 1015.32 1015.43 1015.58 1015.77 1015.98 1016.20 1016.42 1016.62 1016.79 1016.94 1017.05 1017.14 1017.19 1017.21 1017.20 1017.16 1017.10
1014.66 1015.05 1015.43 1015.78 1016.11 1016.40 1016.65 1016.86 1017.01 1017.09 1017.10 1017.04 1016.91 1016.72 1016.47 1016.20 1015.90 1015.61 1015.35 1015.13 1014.97 1014.88 1014.86 1014.91 1015.02 1015.17 1015.35 1015.55 1015.75 1015.94 1016.11 1016.25 1016.35 1016.42 1016.44 1016.43 1016.39 1016.31
1014.27 1014.74 1015.20 1015.64 1016.04 1016.41 1016.74 1017.00 1017.21 1017.35 1017.41 1017.39 1017.29 1017.11 1016.86 1016.56 1016.22 1015.86 1015.51 1015.19 1014.91 1014.70 1014.55 1014.49 1014.49 1014.56 1014.68 1014.83 1015.01 1015.19 1015.36 1015.50 1015.62 1015.69 1015.72 1015.71 1015.66 1015.58
1014.10 1014.64 1015.17 1015.68 1016.15 1016.57 1016.94 1017.25 1017.49 1017.66 1017.75 1017.76 1017.69 1017.53 1017.29 1016.99 1016.63 1016.24 1015.84 1015.44 1015.07 1014.75 1014.50 1014.32 1014.21 1014.18 1014.21 1014.30 1014.42 1014.56 1014.71 1014.84 1014.95 1015.02 1015.05 1015.03 1014.97 1014.88
1014.18 1014.77 1015.35 1015.89 1016.39 1016.83 1017.21 1017.53 1017.77 1017.94 1018.03 1018.05 1017.99 1017.86 1017.64 1017.36 1017.02 1016.63 1016.21 1015.78 1015.36 1014.97 1014.63 1014.35 1014.14 1014.01 1013.94 1013.93 1013.98 1014.05 1014.15 1014.24 1014.32 1014.37 1014.38 1014.35 1014.28 1014.19
1014.50 1015.11 1015.70 1016.25 1016.74 1017.16 1017.51 1017.78 1017.98 1018.12 1018.18 1018.19 1018.13 1018.00 1017.82 1017.57 1017.27 1016.92 1016.52 1016.10 1015.67 1015.25 1014.85 1014.49 1014.19 1013.96 1013.78 1013.67 1013.62 1013.61 1013.63 1013.66 1013.68 1013.69 1013.67 1013.62 1013.54 1013.43
1015.02 1015.62 1016.18 1016.69 1017.13 1017.49 1017.77 1017.96 1018.09 1018.16 1018.17 1018.13 1018.05 1017.93 1017.77 1017.56 1017.31 1017.01 1016.66 1016.28 1015.87 1015.45 1015.03 1014.63 1014.26 1013.93 1013.66 1013.44 1013.28 1013.17 1013.10 1013.05 1013.01 1012.97 1012.90 1012.82 1012.71 1012.58
1015.65 1016.20 1016.71 1017.15 1017.52 1017.79 1017.97 1018.07 1018.09 1018.06 1018.00 1017.90 1017.78 1017.65 1017.50 1017.32 1017.12 1016.88 1016.60 1016.27 1015.90 1015.51 1015.09 1014.66 1014.25 1013.85 1013.50 1013.19 1012.93 1012.72 1012.55 1012.41 1012.30 1012.19 1012.07 1011.95 1011.80 1011.64
1016.30 1016.79 1017.23 1017.59 1017.86 1018.03 1018.11 1018.10 1018.03 1017.90 1017.75 1017.58 1017.41 1017.25 1017.09 1016.93 1016.77 1016.57 1016.34 1016.08 1015.76 1015.39 1014.99 1014.57 1014.13 1013.70 1013.28 1012.90 1012.56 1012.26 1012.01 1011.78 1011.59 1011.41 1011.23 1011.05 1010.86 1010.66
1016.90 1017.32 1017.69 1017.97 1018.15 1018.24 1018.22 1018.12 1017.95 1017.74 1017.51 1017.28 1017.05 1016.85 1016.68 1016.52 1016.36 1016.19 1016.00 1015.77 1015.49 1015.16 1014.79 1014.38 1013.94 1013.49 1013.04 1012.61 1012.21 1011.85 1011.52 1011.22 1010.96 1010.71 1010.47 1010.23 1009.99 1009.74
1017.41 1017.76 1018.05 1018.27 1018.38 1018.40 1018.32 1018.16 1017.93 1017.66 1017.38 1017.09 1016.82 1016.58 1016.38 1016.19 1016.02 1015.86 1015.67 1015.46 1015.20 1014.90 1014.55 1014.16 1013.74 1013.29 1012.84 1012.39 1011.96 1011.54 1011.16 1010.81 1010.47 1010.16 1009.85 1009.55 1009.26 1008.96
1017.81 1018.10 1018.34 1018.50 1018.57 1018.55 1018.44 1018.26 1018.01 1017.72 1017.40 1017.09 1016.79 1016.52 1016.28 1016.06 1015.86 1015.67 1015.47 1015.25 1015.00 1014.71 1014.38 1014.01 1013.61 1013.18 1012.74 1012.29 1011.84 1011.40 1010.98 1010.57 1010.18 1009.80 1009.43 1009.07 1008.71 1008.36
1018.14 1018.37 1018.56 1018.68 1018.73 1018.71 1018.60 1018.43 1018.19 1017.91 1017.61 1017.30 1016.99 1016.69 1016.42 1016.17 1015.93 1015.70 1015.47 1015.22 1014.96 1014.67 1014.35 1014.00 1013.61 1013.20 1012.78 1012.33 1011.88 1011.42 1010.96 1010.51 1010.06 1009.62 1009.18 1008.75 1008.33 1007.92
1018.44 1018.61 1018.75 1018.85 1018.90 1018.88 1018.80 1018.66 1018.47 1018.24 1017.97 1017.68 1017.38 1017.08 1016.79 1016.50 1016.22 1015.95 1015.67 1015.40 1015.11 1014.80 1014.48 1014.13 1013.76 1013.36 1012.94 1012.50 1012.04 1011.56 1011.06 1010.56 1010.05 1009.53 1009.02 1008.52 1008.03 1007.57
1018.76 1018.87 1018.97 1019.05 1019.09 1019.09 1019.05 1018.96 1018.83 1018.65 1018.43 1018.18 1017.91 1017.62 1017.31 1017.00 1016.69 1016.37 1016.05 1015.73 1015.41 1015.08 1014.74 1014.39 1014.01 1013.61 1013.19 1012.73 1012.24 1011.72 1011.18 1010.61 1010.02 1009.43 1008.84 1008.26 1007.71 1007.19
1019.15 1019.21 1019.26 1019.31 1019.35 1019.37 1019.36 1019.31 1019.23 1019.11 1018.94 1018.74 1018.49 1018.21 1017.90 1017.58 1017.23 1016.88 1016.53 1016.17 1015.81 1015.45 1015.08 1014.70 1014.30 1013.88 1013.42 1012.92 1012.38 1011.80 1011.19 1010.54 1009.87 1009.19 1008.51 1007.86 1007.24 1006.67
1019.64 1019.65 1019.66 1019.69 1019.71 1019.73 1019.74 1019.73 1019.68 1019.59 1019.47 1019.29 1019.06 1018.79 1018.48 1018.14 1017.77 1017.39 1017.00 1016.60 1016.21 1015.81 1015.41 1014.99 1014.55 1014.08 1013.56 1013.00 1012.39 1011.73 1011.02 1010.28 1009.52 1008.75 1008.00 1007.28 1006.61 1005.99
1020.24 1020.21 1020.19 1020.19 1020.20 1020.21 1020.22 1020.21 1020.17 1020.10 1019.98 1019.81 1019.59 1019.31 1018.98 1018.62 1018.23 1017.82 1017.40 1016.97 1016.54 1016.10 1015.65 1015.19 1014.69 1014.16 1013.58 1012.94 1012.24 1011.49 1010.69 1009.86 1009.01 1008.16 1007.34 1006.56 1005.85 1005.20
1020.94 1020.89 1020.85 1020.83 1020.81 1020.81 1020.80 1020.78 1020.73 1020.64 1020.50 1020.30 1020.05 1019.74 1019.39 1018.99 1018.57 1018.13 1017.67 1017.21 1016.75 1016.28 1015.79 1015.27 1014.72 1014.13 1013.47 1012.75 1011.98 1011.14 1010.26 1009.35 1008.44 1007.53 1006.66 1005.85 1005.11 1004.46
1021.70 1021.65 1021.61 1021.58 1021.55 1021.53 1021.50 1021.45 1021.36 1021.22 1021.03 1020.78 1020.47 1020.11 1019.70 1019.26 1018.79 1018.31 1017.83 1017.34 1016.84 1016.34 1015.82 1015.26 1014.67 1014.02 1013.31 1012.53 1011.69 1010.80 1009.87 1008.92 1007.97 1007.04 1006.16 1005.35 1004.61 1003.97
1022.47 1022.44 1022.42 1022.40 1022.38 1022.34 1022.28 1022.19 1022.04 1021.84 1021.57 1021.24 1020.85 1020.41 1019.93 1019.43 1018.91 1018.39 1017.87 1017.36 1016.84 1016.32 1015.77 1015.20 1014.58 1013.91 1013.17 1012.37 1011.51 1010.61 1009.67 1008.72 1007.79 1006.88 1006.03 1005.25 1004.54 1003.92
Thickness
5738 5737 5736 5740 5740 5740 5739 5736 5730 5726 5730 5735 5736 5740 5737 5735 5733 5730 5729 5726 5724 5721 5719 5717 5715 5713 5712 5710 5708 5707 5705 5704 5702 5701 5700 5698 5697 5696
5736 5735 5735 5737 5737 5737 5736 5735 5733 5728 5726 5733 5734 5737 5733 5733 5730 5728 5726 5724 5722 5720 5717 5715 5712 5710 5708 5707 5705 5704 5702 5701 5699 5698 5696 5695 5694 5692
5734 5734 5732 5733 5733 5733 5732 5731 5730 5728 5723 5728 5732 5732 5727 5725 5726 5724 5724 5722 5722 5718 5715 5712 5710 5707 5705 5703 5701 5700 5698 5696 5694 5693 5691 5690 5689 5688
5731 5731 5729 5730 5728 5728 5727 5726 5726 5725 5722 5720 5723 5725 5722 5721 5720 5718 5720 5720 5719 5716 5712 5709 5706 5703 5701 5699 5697 5695 5693 5691 5689 5687 5686 5685 5684 5682
5729 5727 5727 5725 5722 5722 5721 5721 5720 5721 5718 5716 5716 5718 5718 5717 5714 5713 5714 5712 5713 5712 5708 5704 5701 5698 5696 5694 5692 5690 5688 5685 5683 5681 5680 5678 5677 5676
5725 5723 5722 5720 5718 5717 5715 5714 5713 5712 5711 5709 5710 5711 5710 5710 5707 5706 5706 5706 5705 5706 5703 5700 5696 5693 5691 5689 5686 5684 5681 5679 5677 5675 5673 5672 5670 5669
5718 5717 5715 5713 5712 5710 5710 5708 5707 5705 5704 5703 5702 5702 5701 5699 5697 5698 5697 5697 5698 5697 5695 5693 5691 5689 5686 5682 5680 5677 5674 5671 5669 5667 5665 5663 5662 5661
5711 5709 5708 5706 5704 5701 5700 5698 5696 5696 5695 5693 5693 5690 5689 5689 5688 5687 5685 5685 5684 5688 5684 5683 5683 5681 5679 5676 5674 5670 5665 5662 5660 5658 5656 5654 5652 5651
5703 5701 5701 5700 5698 5696 5693 5689 5687 5684 5683 5683 5682 5680 5679 5679 5676 5676 5674 5672 5671 5674 5672 5671 5673 5671 5670 5668 5664 5660 5655 5652 5650 5647 5645 5644 5642 5641
5695 5693 5691 5690 5689 5687 5686 5684 5681 5679 5676 5674 5673 5672 5671 5668 5667 5665 5663 5662 5662 5663 5661 5658 5660 5659 5660 5657 5653 5649 5645 5642 5639 5636 5634 5632 5630 5629
5685 5683 5682 5681 5677 5676 5677 5675 5673 5670 5667 5664 5661 5659 5656 5655 5653 5654 5653 5651 5651 5652 5651 5646 5646 5646 5646 5645 5642 5637 5634 5630 5627 5624 5622 5620 5618 5616
5675 5673 5669 5668 5667 5666 5667 5665 5662 5660 5659 5656 5652 5649 5648 5645 5642 5640 5640 5639 5638 5637 5637 5632 5631 5630 5630 5632 5629 5626 5622 5619 5616 5613 5611 5608 5605 5603
5668 5664 5659 5656 5655 5654 5653 5652 5649 5648 5649 5647 5645 5642 5639 5636 5633 5629 5626 5624 5623 5622 5621 5617 5615 5613 5611 5612 5613 5612 5610 5607 5605 5603 5600 5597 5593 5589
5657 5654 5647 5644 5643 5641 5640 5637 5637 5637 5638 5636 5633 5630 5627 5624 5621 5617 5613 5609 5606 5605 5602 5599 5598 5596 5594 5595 5597 5598 5596 5594 5592 5590 5588 5586 5583 5580
5643 5638 5636 5634 5633 5631 5627 5626 5626 5627 5624 5622 5618 5615 5612 5608 5606 5603 5601 5597 5594 5593 5591 5585 5583 5582 5580 5580 5582 5582 5581 5580 5578 5577 5575 5573 5572 5570
5634 5629 5626 5624 5623 5619 5618 5617 5615 5611 5609 5606 5604 5601 5598 5595 5593 5590 5587 5585 5583 5582 5579 5574 5571 5568 5567 5567 5566 5567 5566 5566 5565 5564 5562 5561 5560 5559
5625 5624 5622 5619 5615 5612 5608 5605 5602 5599 5596 5593 5590 5587 5585 5582 5579 5576 5572 5570 5569 5568 5567 5564 5561 5557 5556 5554 5555 5555 5554 5553 5552 5551 5548 5549 5550 5549
5615 5613 5609 5606 5603 5599 5596 5593 5589 5585 5581 5578 5576 5573 5570 5568 5566 5563 5560 5558 5556 5554 5552 5551 5549 5548 5547 5548 5543 5542 5542 5540 5539 5539 5537 5539 5540 5538
5604 5599 5595 5592 5588 5585 5582 5578 5574 5569 5565 5563 5561 5558 5555 5553 5551 5549 5546 5544 5542 5541 5539 5538 5536 5535 5534 5535 5535 5529 5527 5528 5528 5528 5529 5528 5528 5528
5590 5586 5581 5577 5574 5570 5567 5563 5559 5555 5551 5548 5546 5543 5541 5540 5538 5536 5534 5531 5529 5529 5528 5527 5525 5523 5520 5519 5520 5519 5517 5517 5517 5517 5518 5518 5518 5517
5574 5570 5566 5562 5558 5554 5550 5547 5544 5540 5536 5534 5532 5529 5528 5527 5525 5523 5521 5517 5515 5517 5516 5515 5512 5507 5508 5508 5509 5512 5511 5507 5505 5505 5506 5508 5509 5510
5559 5555 5550 5546 5542 5539 5536 5533 5530 5526 5523 5521 5518 5516 5514 5513 5512 5510 5508 5506 5505 5505 5504 5503 5502 5501 5501 5500 5500 5502 5502 5501 5499 5498 5496 5496 5497 5499
5544 5539 5536 5533 5529 5525 5522 5519 5515 5513 5509 5506 5504 5502 5501 5499 5498 5497 5495 5494 5493 5493 5493 5493 5492 5493 5493 5493 5493 5493 5493 5493 5494 5494 5493 5490 5488 5487